• Join FlightAware (Why Join?)
  • Login
  • US Flag 
12:47AM EST


 

Airport Tracker/Info


-or-


 

Live Flight TrackerFlight Track Log ✈ N311JE ✈ 19-Sep-2013 ✈ KLUK - KMDW

Flight Track Log - Related Links

Times and Time Zones

All times are in EDT time to prevent confusion due to time zone crossing. See the N311JE flight status page for this flight to view local times or setup timezone preferences in your user account.

Time Position Orientation Groundspeed Altitude Reporting Facility
EDT Latitude Longitude Course Direction KTS MPH feet Rate Location/Type
07:13PM 39.0833 -84.4167 90° East 96 110 1,000  Level Cincinnati TRACON
07:14PM 39.0833 -84.3833 90° East 117 135 1,900 720 Climbing Cincinnati TRACON
07:15PM 39.0833 -84.3333 90° East 115 132 2,600 600 Climbing Cincinnati TRACON
07:16PM 39.0833 -84.3000 90° East 125 144 3,100 600 Climbing Cincinnati TRACON
07:17PM 39.1167 -84.2833 21° North 101 116 3,800 420 Climbing Cincinnati TRACON
07:18PM 39.1333 -84.3000 322° Northwest 129 148 4,000 60 Climbing Cincinnati TRACON
07:19PM 39.1667 -84.3500 311° West 151 174 4,000 -60 Level Cincinnati TRACON
07:20PM 39.2000 -84.3833 322° Northwest 156 180 3,900  Descending Cincinnati TRACON
07:21PM 39.2333 -84.4167 322° Northwest 159 183 4,100  Climbing Cincinnati TRACON
07:22PM 39.2667 -84.4667 311° West 155 178 4,000 -60 Descending Cincinnati TRACON
07:23PM 39.3000 -84.5000 322° Northwest 158 182 4,000  Level Cincinnati TRACON
07:24PM 39.3167 -84.5333 303° West 157 181 4,000  Level Cincinnati TRACON
07:24PM 39.3331 -84.5578 311° West 159 183 4,000  Level Indianapolis Center
07:25PM 39.3664 -84.5919 322° Northwest 156 180 4,000  Level Indianapolis Center
07:26PM 39.4011 -84.6431 311° West 158 182 4,000  Level Indianapolis Center
07:27PM 39.4372 -84.6756 325° Northwest 158 182 4,000  Level Indianapolis Center
07:28PM 39.4675 -84.7164 314° West 159 183 4,000  Level Indianapolis Center
07:29PM 39.4736 -84.7339 294° West 157 181 4,000  Level Indianapolis Center
07:29PM 39.4967 -84.7586 320° Northwest 157 181 4,000  Level Indianapolis Center
07:29PM 39.5061 -84.7644 335° Northwest 161 185 4,000  Level Indianapolis Center
07:30PM 39.5328 -84.7919 322° Northwest 159 183 4,000  Level Indianapolis Center
07:31PM 39.5414 -84.8064 308° West 159 183 4,000  Level Indianapolis Center
07:31PM 39.5669 -84.8372 317° Northwest 161 185 4,000  Level Indianapolis Center
07:32PM 39.5781 -84.8542 310° West 159 183 4,000  Level Indianapolis Center
07:32PM 39.5975 -84.8753 320° Northwest 157 181 4,000  Level Indianapolis Center
07:33PM 39.6119 -84.8906 321° Northwest 158 182 4,000  Level Indianapolis Center
07:33PM 39.6281 -84.9169 308° West 158 182 4,000  Level Indianapolis Center
07:34PM 39.6597 -84.9553 317° Northwest 157 181 4,000  Level Indianapolis Center
07:35PM 39.6925 -84.9944 317° Northwest 158 182 4,000  Level Indianapolis Center
07:37PM 39.7303 -85.0444 315° West 161 185 4,000  Level Indianapolis Center
07:38PM 39.7639 -85.0814 320° Northwest 160 184 4,100  Climbing Indianapolis Center
07:39PM 39.7942 -85.1225 314° West 159 183 4,100  Level Indianapolis Center
07:40PM 39.8261 -85.1642 315° West 160 184 4,100  Level Indianapolis Center
07:41PM 39.8589 -85.2028 318° Northwest 160 184 4,100 -60 Level Indianapolis Center
07:42PM 39.8903 -85.2450 314° West 161 185 4,000 -60 Descending Indianapolis Center
07:43PM 39.9286 -85.2911 317° Northwest 160 184 4,000  Level Indianapolis Center
07:44PM 39.9603 -85.3331 315° West 161 185 4,000  Level Indianapolis Center
07:45PM 39.9925 -85.3731 316° Northwest 161 185 4,000  Level Indianapolis Center
07:46PM 40.0242 -85.4131 316° Northwest 160 184 4,000  Level Indianapolis Center
07:47PM 40.0558 -85.4550 315° West 161 185 4,000  Level Indianapolis Center
07:48PM 40.0886 -85.4944 317° Northwest 161 185 4,000  Level Indianapolis Center
07:49PM 40.1197 -85.5356 315° West 161 185 4,000  Level Indianapolis Center
07:50PM 40.1578 -85.5833 316° Northwest 160 184 4,000  Level Indianapolis Center
07:51PM 40.1889 -85.6256 314° West 160 184 4,000  Level Indianapolis Center
07:52PM 40.2200 -85.6653 316° Northwest 159 183 4,000  Level Indianapolis Center
07:53PM 40.2525 -85.7039 318° Northwest 159 183 4,000  Level Indianapolis Center
07:54PM 40.2825 -85.7453 314° West 158 182 4,000  Level Indianapolis Center
07:55PM 40.3147 -85.7842 317° Northwest 158 182 4,000  Level Indianapolis Center
07:56PM 40.3517 -85.8342 314° West 158 182 4,000  Level Indianapolis Center
07:57PM 40.3839 -85.8731 317° Northwest 159 183 4,000  Level Indianapolis Center
07:58PM 40.4153 -85.9144 315° West 160 184 4,000  Level Indianapolis Center
07:59PM 40.4347 -85.9392 316° Northwest 161 185 4,000  Level Chicago Center
07:59PM 40.4608 -85.9750 314° West 162 186 4,000  Level Chicago Center
08:00PM 40.4669 -85.9808 324° Northwest 162 186 4,000  Level Chicago Center
08:00PM 40.4950 -86.0178 315° West 163 188 4,000  Level Chicago Center
08:01PM 40.4989 -86.0217 323° Northwest 162 186 4,000  Level Chicago Center
08:01PM 40.5250 -86.0575 314° West 163 188 4,000  Level Chicago Center
08:02PM 40.5314 -86.0639 323° Northwest 163 188 4,000  Level Chicago Center
08:02PM 40.5592 -86.1006 315° West 161 185 4,000  Level Chicago Center
08:03PM 40.5631 -86.1036 329° Northwest 161 185 4,000  Level Chicago Center
08:03PM 40.5892 -86.1403 313° West 160 184 4,000  Level Chicago Center
08:04PM 40.6003 -86.1544 316° Northwest 161 185 4,000  Level Chicago Center
08:05PM 40.6233 -86.1833 316° Northwest 163 188 4,000  Level Chicago Center
08:05PM 40.6328 -86.1953 316° Northwest 161 185 4,000  Level Chicago Center
08:06PM 40.6533 -86.2261 311° West 163 188 4,000  Level Chicago Center
08:06PM 40.6639 -86.2378 320° Northwest 162 186 4,000  Level Chicago Center
08:07PM 40.6872 -86.2692 314° West 162 186 4,000  Level Chicago Center
08:07PM 40.6961 -86.2783 322° Northwest 163 188 4,000  Level Chicago Center
08:08PM 40.7172 -86.3092 312° West 162 186 4,000  Level Chicago Center
08:08PM 40.7258 -86.3189 319° Northwest 158 182 4,000  Level Chicago Center
08:09PM 40.7514 -86.3522 315° West 161 185 4,000  Level Chicago Center
08:09PM 40.7572 -86.3592 318° Northwest 157 181 4,000  Level Chicago Center
08:10PM 40.7814 -86.3925 314° West 162 186 4,000  Level Chicago Center
08:10PM 40.7886 -86.4022 314° West 158 182 4,000  Level Chicago Center
08:11PM 40.8286 -86.4519 317° Northwest 161 185 4,000  Level Chicago Center
08:12PM 40.8472 -86.4789 312° West 162 186 4,000  Level Chicago Center
08:12PM 40.8592 -86.4953 314° West 162 186 4,000  Level Chicago Center
08:13PM 40.8792 -86.5219 315° West 160 184 4,000  Level Chicago Center
08:13PM 40.8894 -86.5378 311° West 160 184 4,000  Level Chicago Center
08:14PM 40.9131 -86.5653 319° Northwest 163 188 4,000  Level Chicago Center
08:14PM 40.9228 -86.5781 315° West 161 185 4,000  Level Chicago Center
08:15PM 40.9525 -86.6217 312° West 161 185 4,000  Level Chicago Center
08:16PM 40.9819 -86.6614 314° West 157 181 4,100  Climbing Chicago Center
08:17PM 41.0183 -86.7058 317° Northwest 167 192 4,100  Level Chicago Center
08:18PM 41.0533 -86.7525 315° West 164 189 4,100  Level Chicago Center
08:19PM 41.0844 -86.7931 316° Northwest 160 184 4,100  Level Chicago Center
08:20PM 41.1158 -86.8369 314° West 163 188 4,100  Level Chicago Center
08:21PM 41.1558 -86.8867 317° Northwest 164 189 4,100  Level Chicago Center
08:22PM 41.1861 -86.9292 313° West 161 185 4,100  Level Chicago Center
08:23PM 41.2169 -86.9703 315° West 159 183 4,100  Level Chicago Center
08:24PM 41.2481 -87.0119 315° West 160 184 4,100  Level Chicago Center
08:25PM 41.2778 -87.0539 313° West 158 182 4,100 -60 Level Chicago Center
08:26PM 41.3158 -87.1025 316° Northwest 157 181 4,000 -60 Descending Chicago Center
08:27PM 41.3456 -87.1433 314° West 156 180 4,000  Level Chicago Center
08:28PM 41.3764 -87.1833 316° Northwest 156 180 4,000  Level Chicago Center
08:30PM 41.4078 -87.2253 315° West 158 182 4,000  Level Chicago Center
08:31PM 41.4372 -87.2667 314° West 156 180 4,000  Level Chicago Center
08:32PM 41.4650 -87.3097 311° West 156 180 4,000  Level Chicago Center
08:33PM 41.4806 -87.3697 289° West 148 170 4,000 -120 Level Chicago Center
08:34PM 41.4906 -87.4197 285° West 144 166 3,800 -420 Descending Chicago Center
08:35PM 41.5172 -87.4703 305° West 160 184 3,200 -420 Descending Chicago Center
08:36PM 41.5461 -87.5228 306° West 170 196 3,000 -180 Descending Chicago Center
08:37PM 41.5928 -87.4950 24° Northeast 200 230 2,900  Descending Chicago Center
08:38PM 41.6431 -87.4669 23° Northeast 199 229 3,000  Climbing Chicago Center
08:39PM 41.6622 -87.5158 298° West 166 191 3,000 -300 Level Chicago Center
08:40PM 41.6817 -87.5678 297° West 158 182 2,500 -300 Descending Chicago Center
08:41PM 41.7000 -87.6228 294° West 160 184 2,500 -300 Level Chicago Center
08:42PM 41.7239 -87.6678 305° West 154 177 2,000 -540 Descending Chicago Center
08:43PM 41.7508 -87.7033 315° West 145 167 1,400 -420 Descending Chicago Center
08:44PM 41.7797 -87.7256 330° Northwest 142 163 1,200 -240 Descending Chicago Center
08:46PM 41.7833 -87.7500 312° West  Level FlightAware Approximate